Location: State Camp
(41.2367°N, 77.7828°W)
Time: 22:51:36
(UTC-04:00)

Amateur Radio Satellites - All Passes

Search period start: 04 May 2016 22:21
Search period end: 05 May 2016 22:21
Location: State Camp, 41.2367°N, 77.7828°W

Satellite Date Start Highest point End Downlink Frequencies (MHz)
Time Altitude Azimuth
UNISAT 6 04 May 22:25:57 22:27:38 12° 90° (E) 22:29:18 437.425
VELOX 1 04 May 22:40:41 22:42:42 13° 62° (ENE) 22:44:44 145.980
RS-15 04 May 22:41:33 22:52:52 76° 305° (NW) 23:04:55 29.354- 29.394
TIGRISAT 04 May 22:41:41 22:44:34 17° 92° (E) 22:47:24 435.000
Oscar 11 04 May 22:52:22 22:55:07 17° 268° (W) 22:57:54 145.826/435.025
PRISM 04 May 22:54:59 22:57:13 14° 296° (WNW) 22:59:29 437.425
HUMSAT D 04 May 22:57:03 23:01:13 62° 260° (W) 23:05:22 437.325/437.525
ANTELSAT 04 May 23:06:15 23:10:11 34° 97° (E) 23:14:04 437.575/2403.000
FUNcube-1 04 May 23:07:26 23:09:59 15° 269° (W) 23:12:31 145.935
DELFI C3 04 May 23:09:03 23:11:52 19° 266° (W) 23:14:42 145.870
AISAT 04 May 23:11:03 23:14:49 28° 68° (ENE) 23:18:37 437.250
O/OREOS (USA 219) 04 May 23:30:23 23:33:03 15° 53° (NE) 23:35:43 437.305
GONETS M04 04 May 23:31:13 23:37:38 23° 80° (E) 23:44:02
PCSat 04 May 23:32:57 23:37:01 21° 45° (NE) 23:41:02 145.827
ESTCUBE 1 04 May 23:37:56 23:42:23 70° 74° (ENE) 23:46:51 437.505/2401.250
CUBEBUG 1 04 May 23:41:00 23:45:15 52° 73° (ENE) 23:49:33 437.445
50 SAT 04 May 23:56:45 00:00:24 83° 257° (WSW) 00:04:03 437.505
UNISAT 6 05 May 00:00:30 00:04:44 57° 287° (WNW) 00:08:55 437.425
Cosmos 2499 05 May 00:01:35 00:05:01 14° 78° (ENE) 00:08:28 435.465 / 435.565
DX 1 05 May 00:03:16 00:07:38 86° 72° (ENE) 00:12:02 434.975-435.025
UKube-1 05 May 00:05:36 00:09:54 75° 74° (ENE) 00:14:14 .
DUCHIFAT 1 05 May 00:07:47 00:11:26 28° 96° (E) 00:15:02 145.980
QB50P2 05 May 00:11:08 00:15:04 36° 98° (E) 00:18:56 145.880/145.840
POLYITAN 1 05 May 00:13:20 00:17:15 36° 98° (E) 00:21:08 437.675
VELOX 1 05 May 00:14:13 00:18:36 65° 258° (WSW) 00:23:04 145.980
POPSAT HIP 1 05 May 00:15:18 00:19:15 37° 98° (E) 00:23:09 437.405
TIGRISAT 05 May 00:17:25 00:21:26 39° 289° (WNW) 00:25:24 435.000
QB50P1 05 May 00:18:14 00:22:16 41° 98° (E) 00:26:15 145.935-145.965
SPROUT 05 May 00:31:16 00:35:33 71° 75° (ENE) 00:39:52 437.525
BUGSAT 1 05 May 00:40:10 00:43:54 31° 97° (E) 00:47:34 437.445
ANTELSAT 05 May 00:43:28 00:46:42 21° 294° (WNW) 00:49:53 437.575/2403.000
AISAT 05 May 00:47:25 00:51:13 28° 264° (W) 00:55:04 437.250
NANOSAT C BR1 05 May 00:51:38 00:55:53 85° 284° (WNW) 01:00:05 145.865
TISAT 1 05 May 00:57:07 01:01:04 40° 72° (ENE) 01:05:05 437.305
RS-15 05 May 00:57:57 01:07:45 30° 334° (NNW) 01:17:59 29.354- 29.394
AIST 1 05 May 00:58:02 01:02:19 70° 278° (W) 01:06:41
BEESAT 05 May 01:04:35 01:05:36 11° 59° (ENE) 01:06:37 436.000
O/OREOS (USA 219) 05 May 01:08:26 01:12:53 60° 251° (WSW) 01:17:17 437.305
PCSat 05 May 01:15:31 01:20:55 68° 244° (WSW) 01:26:17 145.827
ESTCUBE 1 05 May 01:18:35 01:19:40 11° 271° (W) 01:20:44 437.505/2401.250
CUBEBUG 1 05 May 01:19:30 01:21:51 14° 269° (W) 01:24:12 437.445
GONETS M04 05 May 01:24:38 01:33:29 75° 279° (W) 01:42:21
CUSAT 1 05 May 01:25:44 01:32:30 37° 72° (ENE) 01:39:49 437.405
JAS-2 05 May 01:34:21 01:41:43 42° 96° (E) 01:48:56 435.910
DUCHIFAT 1 05 May 01:43:36 01:47:01 24° 292° (WNW) 01:50:24 145.980
QB50P2 05 May 01:47:33 01:50:38 20° 294° (WNW) 01:53:40 145.880/145.840
POLYITAN 1 05 May 01:49:47 01:52:48 19° 294° (WNW) 01:55:49 437.675
Cosmos 2499 05 May 01:49:55 01:56:59 87° 276° (W) 02:04:10 435.465 / 435.565
POPSAT HIP 1 05 May 01:51:46 01:54:46 19° 294° (WNW) 01:57:44 437.405
QB50P1 05 May 01:54:54 01:57:43 18° 295° (WNW) 02:00:32 145.935-145.965
ITUPSAT 1 05 May 01:57:23 02:01:39 34° 69° (ENE) 02:05:57 437.325
BEESAT 3 05 May 02:04:45 02:07:25 17° 44° (NE) 02:10:05 437.485
SWISSCUBE 05 May 02:05:14 02:09:45 46° 71° (ENE) 02:14:18 437.505
BUGSAT 1 05 May 02:15:52 02:19:06 22° 293° (WNW) 02:22:17 437.445
BEESAT 2 05 May 02:16:51 02:19:08 15° 42° (NE) 02:21:24 435.950
DANDE 05 May 02:28:48 02:35:28 53° 77° (ENE) 02:43:24 436.750
TISAT 1 05 May 02:34:04 02:36:54 17° 267° (W) 02:39:45 437.305
BEESAT 05 May 02:37:52 02:42:38 90° 48° (NE) 02:47:25 436.000
Oscar 19 05 May 02:45:08 02:50:23 84° 104° (ESE) 02:55:34 437.125/150
MOZHAYETS 4 05 May 02:52:11 02:52:43 10° 60° (ENE) 02:53:16
Gurwin Techsat 1B 05 May 02:58:38 03:03:45 46° 99° (E) 03:08:49 435.225
CUSAT 1 05 May 03:07:36 03:14:46 51° 267° (W) 03:22:28 437.405
AO-7 05 May 03:11:33 03:14:17 12° 87° (E) 03:17:01 29.400- 29.500
RS-15 05 May 03:16:41 03:25:45 23° 10° (N) 03:35:00 29.354- 29.394
JAS-2 05 May 03:19:20 03:26:38 45° 293° (WNW) 03:33:53 435.910
GONETS M04 05 May 03:27:11 03:31:59 15° 301° (WNW) 03:36:48
ITUPSAT 1 05 May 03:35:38 03:39:32 25° 265° (W) 03:43:27 437.325
BEESAT 3 05 May 03:41:34 03:45:25 51° 242° (WSW) 03:49:13 437.485
SWISSCUBE 05 May 03:44:31 03:47:47 18° 267° (W) 03:51:04 437.505
Cosmos 2499 05 May 03:47:41 03:51:17 14° 299° (WNW) 03:54:54 435.465 / 435.565
BEESAT 2 05 May 03:53:27 03:57:26 67° 240° (WSW) 04:01:21 435.950
KKS-1 05 May 04:03:49 04:08:19 89° 261° (W) 04:12:50 437.445
AIST 2 05 May 04:08:00 04:10:37 16° 42° (NE) 04:13:13 435.215
ITAMSAT 1 05 May 04:08:55 04:14:08 85° 105° (ESE) 04:19:20 435.822/435.867
DANDE 05 May 04:12:05 04:18:09 33° 269° (W) 04:25:08 436.750
STARS 05 May 04:13:56 04:18:19 61° 73° (ENE) 04:22:43 437.465
MOZHAYETS 4 05 May 04:24:36 04:29:10 87° 254° (WSW) 04:33:46
Oscar 19 05 May 04:26:34 04:28:58 13° 301° (WNW) 04:31:22 437.125/150
Gurwin Techsat 1B 05 May 04:39:15 04:43:24 24° 296° (WNW) 04:47:32 435.225
CUBESAT XI-V 05 May 04:41:19 04:44:12 17° 64° (ENE) 04:47:05 437.345
AO-7 05 May 05:00:07 05:08:27 69° 105° (ESE) 05:16:46 29.400- 29.500
HORYU 2 05 May 05:22:31 05:26:28 31° 97° (E) 05:30:23 437.375
RS-15 05 May 05:30:55 05:42:33 46° 42° (NE) 05:54:14 29.354- 29.394
AIST 2 05 May 05:45:24 05:49:31 64° 240° (WSW) 05:53:35 435.215
YUBILEINY 05 May 05:50:11 05:58:38 52° 76° (ENE) 06:07:04 435.215
ITAMSAT 1 05 May 05:50:33 05:52:52 13° 301° (WNW) 05:55:12 435.822/435.867
Cosmos 2504 05 May 05:51:44 05:54:36 12° 60° (ENE) 05:57:32 435.465 / 435.565
STARS 05 May 05:53:14 05:55:04 12° 269° (W) 05:56:54 437.465
CUBESAT XI-V 05 May 06:16:40 06:21:08 52° 260° (W) 06:25:41 437.345
NOAA 15 05 May 06:29:55 06:34:31 29° 96° (E) 06:39:04 137.62
NOAA 18 05 May 06:30:11 06:34:39 25° 95° (E) 06:39:05 137.9125
Cosmos 2491 05 May 06:34:18 06:42:40 50° 89° (E) 06:51:04 435.465 / 435.565
BRITE-PL 05 May 06:37:44 06:42:28 27° 93° (E) 06:47:05 437.365/2234.400
Cubesat XI-IV 05 May 06:41:14 06:45:33 24° 94° (E) 06:49:49 437.490
AO-7 05 May 06:53:48 07:00:34 29° 304° (NW) 07:07:22 29.400- 29.500
STRAND 1 05 May 06:58:19 07:03:02 40° 69° (ENE) 07:07:45 437.568
HORYU 2 05 May 06:59:19 07:02:52 24° 293° (WNW) 07:06:24 437.375
SO-50 05 May 07:03:33 07:08:26 73° 120° (ESE) 07:13:21 436.795
ISS 05 May 07:09:31 07:12:46 86° 143° (SE) 07:16:03 145.825
LilacSat-2 05 May 07:13:13 07:16:52 44° 99° (E) 07:20:29 437.200
DOVE 4 05 May 07:20:55 07:23:37 14° 88° (E) 07:26:13 437.250
CUTE-I 05 May 07:35:12 07:40:33 78° 103° (ESE) 07:45:52 437.470
GOMX 1 05 May 07:36:07 07:41:17 44° 97° (E) 07:46:11 467.674
M-CUBED/EXP-1 PRIME 05 May 07:38:07 07:40:33 16° 97° (E) 07:42:52 437.505
Cosmos 2504 05 May 07:41:44 07:49:23 69° 80° (E) 07:57:36 435.465 / 435.565
RS-15 05 May 07:43:38 07:55:41 64° 246° (WSW) 08:07:41 29.354- 29.394
YUBILEINY 05 May 07:47:32 07:55:04 34° 276° (W) 08:02:36 435.215
AUBIESAT-1 05 May 07:54:07 07:56:57 20° 98° (E) 07:59:39 437.475
PRISM 05 May 08:07:44 08:11:28 36° 70° (ENE) 08:15:14 437.425
NOAA 15 05 May 08:09:28 08:14:18 36° 292° (WNW) 08:19:06 137.62
NOAA 18 05 May 08:10:20 08:15:27 43° 292° (WNW) 08:20:33 137.9125
BRITE-PL 05 May 08:15:40 08:21:04 44° 290° (WNW) 08:26:18 437.365/2234.400
Cubesat XI-IV 05 May 08:20:45 08:25:44 42° 291° (WNW) 08:30:43 437.490
HO-68 05 May 08:29:52 08:35:57 29° 95° (E) 08:42:01 435.675
Cosmos 2491 05 May 08:31:45 08:39:42 37° 289° (WNW) 08:47:45 435.465 / 435.565
CANX-2 05 May 08:33:29 08:36:57 24° 95° (E) 08:40:24 2200.000
STRAND 1 05 May 08:38:13 08:42:19 24° 266° (W) 08:46:26 437.568
PHONESAT 2.4 05 May 08:38:18 08:40:06 14° 150° (SSE) 08:41:54 2401.200-2431.200
SO-50 05 May 08:45:56 08:49:27 19° 319° (NW) 08:52:57 436.795
ISS 05 May 08:47:04 08:49:35 20° 342° (NNW) 08:52:05 145.825
LilacSat-2 05 May 08:48:59 08:50:47 13° 295° (WNW) 08:52:34 437.200
DOVE 4 05 May 08:56:46 09:01:49 63° 286° (WNW) 09:06:33 437.250
CUTE 1.7 + AOD 2 05 May 09:05:18 09:09:24 48° 99° (E) 09:13:29 437.475
M-CUBED/EXP-1 PRIME 05 May 09:11:48 09:15:18 33° 296° (WNW) 09:18:32 437.505
GOMX 1 05 May 09:14:42 09:19:02 25° 295° (WNW) 09:23:13 467.674
CUTE-I 05 May 09:17:04 09:19:55 15° 300° (WNW) 09:22:47 437.470
CINEMA 3 05 May 09:20:41 09:25:17 75° 101° (E) 09:29:39 145.822/145.860
UNISAT 6 05 May 09:24:55 09:27:03 13° 63° (ENE) 09:29:11 437.425
COMPASS 1 05 May 09:26:08 09:30:08 43° 99° (E) 09:34:06 437.405
SEEDS 05 May 09:27:38 09:31:48 64° 100° (E) 09:35:59 437.485
AUBIESAT-1 05 May 09:28:16 09:31:30 26° 297° (WNW) 09:34:30 437.475
Cosmos 2504 05 May 09:36:24 09:42:06 23° 277° (W) 09:48:04 435.465 / 435.565
UWE-3 05 May 09:37:02 09:40:25 23° 94° (E) 09:43:45 435.000/436.395/437.385
TIGRISAT 05 May 09:40:24 09:43:29 18° 65° (ENE) 09:46:33 435.000
GONETS M04 05 May 09:43:26 09:44:34 10° 53° (NE) 09:45:44
PRISM 05 May 09:44:08 09:46:54 18° 266° (W) 09:49:42 437.425
CUBEBUG 2 05 May 09:49:46 09:53:55 47° 99° (E) 09:57:56 437.445
AAUSAT CUBESAT 2 05 May 09:54:10 09:58:20 74° 102° (ESE) 10:02:29 437.432
RS-15 05 May 10:00:47 10:05:34 13° 267° (W) 10:10:21 29.354- 29.394
ZACube-1 05 May 10:01:19 10:04:58 29° 96° (E) 10:08:34 437.345
ANTELSAT 05 May 10:04:45 10:08:52 32° 70° (ENE) 10:12:55 437.575/2403.000
CANX-2 05 May 10:09:10 10:12:47 28° 290° (WNW) 10:16:23 2200.000
PHONESAT 2.4 05 May 10:13:28 10:16:31 50° 165° (SSE) 10:19:35 2401.200-2431.200
HO-68 05 May 10:17:02 10:23:56 54° 293° (WNW) 10:30:50 435.675
ISS 05 May 10:25:17 10:26:59 13° 2° (N) 10:28:41 145.825
Oscar 11 05 May 10:37:34 10:41:54 89° 109° (ESE) 10:46:13 145.826/435.025
HUMSAT D 05 May 10:41:15 10:44:16 20° 94° (E) 10:47:15 437.325/437.525
CUTE 1.7 + AOD 2 05 May 10:42:25 10:44:50 15° 295° (WNW) 10:47:17 437.475
DELFI C3 05 May 10:45:23 10:49:17 52° 100° (E) 10:53:11 145.870
FUNcube-1 05 May 10:53:18 10:57:29 74° 284° (WNW) 11:01:35 145.935
UNISAT 6 05 May 10:58:36 11:03:14 68° 259° (W) 11:07:47 437.425
DUCHIFAT 1 05 May 10:59:56 11:03:13 22° 67° (ENE) 11:06:30 145.980
CINEMA 3 05 May 11:00:10 11:01:43 12° 300° (WNW) 11:03:13 145.822/145.860
COMPASS 1 05 May 11:02:45 11:05:21 16° 294° (WNW) 11:07:58 437.405
QB50P2 05 May 11:03:49 11:07:28 28° 69° (ENE) 11:11:07 145.880/145.840
AIST 1 05 May 11:05:21 11:09:09 28° 75° (ENE) 11:12:56
SEEDS 05 May 11:05:28 11:06:59 12° 297° (WNW) 11:08:30 437.485
POLYITAN 1 05 May 11:05:58 11:09:40 28° 69° (ENE) 11:13:20 437.675
POPSAT HIP 1 05 May 11:07:48 11:11:29 29° 69° (ENE) 11:15:11 437.405
QB50P1 05 May 11:10:38 11:14:25 31° 70° (ENE) 11:18:12 145.935-145.965
UWE-3 05 May 11:13:15 11:16:53 28° 291° (WNW) 11:20:27 435.000/436.395/437.385
TIGRISAT 05 May 11:15:21 11:19:49 48° 261° (W) 11:24:15 435.000
CUBEBUG 2 05 May 11:27:37 11:30:07 15° 296° (WNW) 11:32:35 437.445
BUGSAT 1 05 May 11:30:02 11:33:22 23° 67° (ENE) 11:36:44 437.445
ESTCUBE 1 05 May 11:31:49 11:34:24 15° 91° (E) 11:36:58 437.505/2401.250
AAUSAT CUBESAT 2 05 May 11:32:53 11:33:13 10° 298° (WNW) 11:33:33 437.432
GONETS M04 05 May 11:35:08 11:43:44 56° 77° (ENE) 11:52:12
ZACube-1 05 May 11:37:50 11:41:08 23° 292° (WNW) 11:44:24 437.345
Cosmos 2499 05 May 11:39:49 11:46:47 34° 72° (ENE) 11:54:09 435.465 / 435.565
ANTELSAT 05 May 11:41:48 11:45:36 25° 265° (W) 11:49:21 437.575/2403.000
NANOSAT C BR1 05 May 11:43:19 11:47:33 70° 75° (ENE) 11:51:49 145.865
JAS-2 05 May 11:48:46 11:52:44 17° 55° (NE) 11:56:58 435.910
PHONESAT 2.4 05 May 11:50:08 11:53:17 79° 181° (S) 11:56:26 2401.200-2431.200
DX 1 05 May 11:52:54 11:55:23 15° 92° (E) 11:57:53 434.975-435.025
UKube-1 05 May 11:54:45 11:56:32 12° 91° (E) 11:58:18 .
ISS 05 May 12:01:34 12:04:19 24° 22° (NNE) 12:07:03 145.825
VELOX 1 05 May 12:04:53 12:08:29 23° 95° (E) 12:12:02 145.980
HO-68 05 May 12:09:03 12:10:04 10° 313° (NW) 12:11:05 435.675
HUMSAT D 05 May 12:16:19 12:19:57 31° 289° (WNW) 12:23:34 437.325/437.525
SPROUT 05 May 12:19:24 12:21:05 12° 90° (E) 12:22:44 437.525
DELFI C3 05 May 12:21:55 12:23:43 13° 296° (WNW) 12:25:32 145.870
AO-85 05 May 12:24:56 12:30:18 62° 118° (ESE) 12:35:39 145.980
Oscar 19 05 May 12:25:17 12:28:20 16° 61° (ENE) 12:31:24 437.125/150
DUCHIFAT 1 05 May 12:34:53 12:38:43 32° 263° (W) 12:42:35 145.980
AISAT 05 May 12:36:49 12:41:14 54° 101° (E) 12:45:35 437.250
QB50P2 05 May 12:39:39 12:43:13 25° 265° (W) 12:46:48 145.880/145.840
POLYITAN 1 05 May 12:41:52 12:45:25 25° 265° (W) 12:48:59 437.675
AIST 1 05 May 12:43:04 12:46:38 24° 271° (W) 12:50:10
POPSAT HIP 1 05 May 12:43:43 12:47:14 24° 265° (W) 12:50:46 437.405
QB50P1 05 May 12:46:50 12:50:13 22° 266° (W) 12:53:37 145.935-145.965
50 SAT 05 May 13:00:08 13:03:46 62° 285° (WNW) 13:07:23 437.505
BUGSAT 1 05 May 13:04:49 13:08:35 31° 263° (W) 13:12:24 437.445
CUBEBUG 1 05 May 13:05:35 13:10:02 76° 284° (WNW) 13:14:26 437.445
ESTCUBE 1 05 May 13:07:05 13:11:30 53° 287° (WNW) 13:15:55 437.505/2401.250
PHONESAT 2.4 05 May 13:27:01 13:30:01 41° 198° (SSW) 13:33:00 2401.200-2431.200
DX 1 05 May 13:27:36 13:31:52 50° 288° (WNW) 13:36:05 434.975-435.025
UKube-1 05 May 13:28:39 13:32:57 59° 287° (WNW) 13:37:11 .
JAS-2 05 May 13:30:35 13:36:39 88° 257° (WSW) 13:43:38 435.910
Cosmos 2499 05 May 13:32:35 13:40:04 51° 270° (W) 13:48:06 435.465 / 435.565
GONETS M04 05 May 13:32:42 13:40:02 32° 277° (W) 13:47:20
ISS 05 May 13:37:45 13:40:57 55° 220° (SW) 13:44:09 145.825
VELOX 1 05 May 13:40:59 13:44:59 33° 291° (WNW) 13:48:57 145.980
O/OREOS (USA 219) 05 May 13:43:14 13:45:57 16° 99° (E) 13:48:39 437.305
ITAMSAT 1 05 May 13:49:55 13:53:10 17° 61° (ENE) 13:56:24 435.822/435.867
SPROUT 05 May 13:53:10 13:57:24 58° 286° (WNW) 14:01:35 437.525
SO-50 05 May 13:56:45 13:58:32 12° 34° (NNE) 14:00:17 436.795
Oscar 19 05 May 14:01:55 14:07:04 69° 258° (WSW) 14:12:16 437.125/150
AO-85 05 May 14:06:47 14:11:13 25° 316° (NW) 14:15:35 145.980
SWISSCUBE 05 May 14:07:37 14:09:13 11° 90° (E) 14:10:48 437.505
AO-7 05 May 14:09:37 14:15:25 22° 51° (NE) 14:21:13 29.400- 29.500
AISAT 05 May 14:14:39 14:17:15 15° 297° (WNW) 14:19:50 437.250
TISAT 1 05 May 14:16:17 14:20:31 73° 102° (ESE) 14:24:42 437.305
PCSat 05 May 14:16:25 14:19:27 15° 104° (ESE) 14:22:28 145.827
Gurwin Techsat 1B 05 May 14:19:36 14:24:53 72° 74° (ENE) 14:30:12 435.225
CUSAT 1 05 May 14:31:50 14:34:29 18° 83° (E) 14:37:39 437.405
BEESAT 05 May 14:38:39 14:42:24 23° 94° (E) 14:46:08 436.000
PHONESAT 2.4 05 May 15:05:27 15:06:21 11° 213° (SSW) 15:07:14 2401.200-2431.200
JAS-2 05 May 15:20:10 15:22:54 13° 277° (W) 15:25:46 435.910
O/OREOS (USA 219) 05 May 15:20:24 15:24:53 51° 296° (WNW) 15:29:23 437.305
ITAMSAT 1 05 May 15:26:58 15:32:06 64° 258° (WSW) 15:37:15 435.822/435.867
ITUPSAT 1 05 May 15:34:54 15:39:42 83° 104° (ESE) 15:44:29 437.325
SO-50 05 May 15:35:18 15:40:01 63° 54° (NE) 15:44:32 436.795
DANDE 05 May 15:40:55 15:43:42 35° 92° (E) 15:47:11 436.750
SWISSCUBE 05 May 15:42:44 15:47:30 73° 286° (WNW) 15:52:15 437.505
TISAT 1 05 May 15:54:36 15:55:33 11° 299° (WNW) 15:56:32 437.305
KKS-1 05 May 15:55:53 15:58:52 18° 93° (E) 16:01:51 437.445
PCSat 05 May 15:56:46 16:02:10 73° 301° (WNW) 16:07:38 145.827
AO-7 05 May 15:58:49 16:07:06 89° 78° (ENE) 16:15:28 29.400- 29.500
Gurwin Techsat 1B 05 May 16:02:41 16:05:22 14° 270° (W) 16:08:03 435.225
STARS 05 May 16:06:01 16:07:08 11° 90° (E) 16:08:15 437.465
CUSAT 1 05 May 16:12:48 16:16:11 30° 291° (WNW) 16:20:29 437.405
BEESAT 05 May 16:15:54 16:20:17 38° 290° (WNW) 16:24:40 436.000
MOZHAYETS 4 05 May 16:20:16 16:23:48 22° 94° (E) 16:27:20
HORYU 2 05 May 16:20:30 16:24:24 30° 68° (ENE) 16:28:17 437.375
Cosmos 2491 05 May 16:45:09 16:52:02 25° 65° (ENE) 16:58:52 435.465 / 435.565
ITUPSAT 1 05 May 17:15:11 17:16:51 12° 300° (WNW) 17:18:30 437.325
SO-50 05 May 17:17:20 17:19:55 15° 252° (WSW) 17:22:27 436.795
CUTE-I 05 May 17:19:35 17:22:56 17° 61° (ENE) 17:26:17 437.470
DANDE 05 May 17:26:40 17:27:07 10° 300° (WNW) 17:27:35 436.750
KKS-1 05 May 17:31:24 17:35:39 43° 289° (WNW) 17:39:51 437.445
BEESAT 3 05 May 17:32:39 17:35:52 25° 113° (ESE) 17:39:07 437.485
STARS 05 May 17:39:33 17:43:56 67° 286° (WNW) 17:48:17 437.465
PCSat 05 May 17:43:44 17:46:33 14° 321° (NW) 17:49:22 145.827
BEESAT 2 05 May 17:46:14 17:49:12 20° 112° (ESE) 17:52:10 435.950
BRITE-PL 05 May 17:48:27 17:52:36 27° 66° (ENE) 17:57:00 437.365/2234.400
NOAA 15 05 May 17:49:48 17:54:47 46° 70° (ENE) 17:59:51 137.62
LilacSat-2 05 May 17:55:32 17:58:38 23° 69° (ENE) 18:01:43 437.200
AO-7 05 May 17:55:35 18:00:52 18° 269° (W) 18:06:11 29.400- 29.500
NOAA 18 05 May 17:56:10 18:01:27 49° 70° (ENE) 18:06:44 137.9125
MOZHAYETS 4 05 May 17:56:53 18:01:04 36° 289° (WNW) 18:05:14
HORYU 2 05 May 17:57:14 18:00:56 25° 264° (W) 18:04:38 437.375
Cubesat XI-IV 05 May 18:03:01 18:07:59 41° 69° (ENE) 18:12:56 437.490
CUBESAT XI-V 05 May 18:13:07 18:17:30 38° 97° (E) 18:21:53 437.345
M-CUBED/EXP-1 PRIME 05 May 18:23:07 18:27:08 29° 64° (ENE) 18:31:05 437.505
DOVE 4 05 May 18:25:49 18:29:05 17° 62° (ENE) 18:32:25 437.250
AUBIESAT-1 05 May 18:38:51 18:43:01 34° 65° (ENE) 18:47:04 437.475
Cosmos 2491 05 May 18:40:58 18:49:46 74° 266° (W) 18:58:27 435.465 / 435.565
GOMX 1 05 May 18:43:27 18:48:18 45° 71° (ENE) 18:53:25 467.674
YUBILEINY 05 May 18:50:43 18:59:13 60° 91° (E) 19:07:43 435.215
CUTE-I 05 May 18:57:09 19:02:26 66° 258° (WSW) 19:07:44 437.470
HO-68 05 May 18:59:30 19:04:52 24° 57° (ENE) 19:10:13 435.675
BEESAT 3 05 May 19:09:58 19:13:27 29° 310° (NW) 19:16:58 437.485
STRAND 1 05 May 19:10:28 19:12:47 13° 90° (E) 19:15:06 437.568
AO-85 05 May 19:19:47 19:20:27 10° 30° (NNE) 19:21:06 145.980
BEESAT 2 05 May 19:23:09 19:26:50 35° 309° (NW) 19:30:32 435.950
BRITE-PL 05 May 19:26:20 19:30:51 37° 265° (W) 19:35:45 437.365/2234.400
CANX-2 05 May 19:26:53 19:29:46 18° 66° (ENE) 19:32:38 2200.000
LilacSat-2 05 May 19:29:38 19:32:51 24° 265° (W) 19:36:04 437.200
NOAA 15 05 May 19:30:45 19:34:47 22° 266° (W) 19:38:51 137.62
NOAA 18 05 May 19:38:06 19:42:20 22° 266° (W) 19:46:35 137.9125
AIST 2 05 May 19:43:17 19:46:41 25° 113° (ESE) 19:50:08 435.215
Cubesat XI-IV 05 May 19:43:47 19:48:09 25° 265° (W) 19:52:32 437.490
CUBESAT XI-V 05 May 19:51:00 19:54:39 23° 294° (WNW) 19:58:18 437.345
M-CUBED/EXP-1 PRIME 05 May 19:57:19 20:01:33 32° 258° (WSW) 20:05:43 437.505
CUTE 1.7 + AOD 2 05 May 19:57:59 20:01:46 34° 71° (ENE) 20:05:34 437.475
RS-15 05 May 19:58:31 20:06:14 22° 99° (E) 20:14:10 29.354- 29.394
DOVE 4 05 May 20:01:02 20:06:09 67° 259° (W) 20:11:28 437.250
AUBIESAT-1 05 May 20:13:33 20:17:27 26° 259° (W) 20:21:18 437.475
COMPASS 1 05 May 20:17:05 20:20:38 29° 70° (ENE) 20:24:12 437.405
SEEDS 05 May 20:19:14 20:23:10 42° 72° (ENE) 20:27:07 437.485
Cosmos 2504 05 May 20:20:39 20:27:40 56° 91° (E) 20:34:37 435.465 / 435.565
CINEMA 3 05 May 20:21:10 20:26:09 69° 75° (ENE) 20:31:07 145.822/145.860
GOMX 1 05 May 20:22:35 20:26:34 23° 269° (W) 20:30:45 467.674
UWE-3 05 May 20:33:54 20:37:25 22° 67° (ENE) 20:40:52 435.000/436.395/437.385
Cosmos 2491 05 May 20:41:18 20:44:55 13° 286° (WNW) 20:48:31 435.465 / 435.565
AAUSAT CUBESAT 2 05 May 20:44:15 20:48:11 46° 73° (ENE) 20:52:08 437.432
HO-68 05 May 20:44:46 20:51:54 72° 256° (WSW) 20:59:05 435.675
CUBEBUG 2 05 May 20:47:12 20:51:38 42° 72° (ENE) 20:56:00 437.445
STRAND 1 05 May 20:47:22 20:52:28 73° 286° (WNW) 20:57:34 437.568
YUBILEINY 05 May 20:49:05 20:56:30 30° 291° (WNW) 21:03:58 435.215
ZACube-1 05 May 20:57:01 21:00:41 25° 68° (ENE) 21:04:19 437.345
AO-85 05 May 20:57:33 21:02:14 49° 52° (NE) 21:06:30 145.980
CANX-2 05 May 21:01:23 21:05:20 38° 262° (W) 21:09:17 2200.000
AIST 2 05 May 21:21:22 21:25:04 31° 310° (NW) 21:28:47 435.215
PRISM 05 May 21:24:00 21:28:09 60° 101° (E) 21:32:17 437.425
DELFI C3 05 May 21:31:35 21:35:01 29° 70° (ENE) 21:38:28 145.870
Oscar 11 05 May 21:31:56 21:36:13 67° 74° (ENE) 21:40:30 145.826/435.025
HUMSAT D 05 May 21:33:18 21:35:44 15° 65° (ENE) 21:38:09 437.325/437.525
CUTE 1.7 + AOD 2 05 May 21:34:36 21:37:42 20° 267° (W) 21:40:47 437.475
FUNcube-1 05 May 21:48:05 21:52:36 83° 75° (ENE) 21:57:01 145.935
COMPASS 1 05 May 21:52:56 21:56:12 22° 266° (W) 21:59:28 437.405
SEEDS 05 May 21:56:35 21:59:04 15° 268° (W) 22:01:35 437.485
CINEMA 3 05 May 22:01:09 22:03:42 14° 271° (W) 22:06:15 145.822/145.860
UWE-3 05 May 22:09:21 22:13:39 37° 262° (W) 22:17:53 435.000/436.395/437.385
